Kezdőlap
METAR-TAF:

METAR-TAF

Repülőterek :

Oelwein Municipal Airport

Oelwein, Iowa, Amerikai Egyesült Államok

földrajzi szélesség: 42-40-51N, földrajzi hosszúság: 091-58-28W, magasság: 328 m

Jelenlegi meteorológiai megfigyelések

A jelentés 25 perccel ezelõtt készült, 10:55 UTC
Szélcsend
Hőmérséklet 11°C
Páratartalom 76%
Légköri nyomás 1016 hPa
Látótávolság: 16.1 km
Borult 12000 lábon

METAR: KOLZ 171055Z AUTO 00000KT 10SM OVC120 11/07 A3001 RMK A01

Idő: 06:20 (11:20 UTC)


TAF: hiányzik

Meteorológiai megfigyelések és előrejelzések több, mint 4000 repülőtéren (METAR és TAF jelentéseket).

A térképen piros és sárga pontok jelzik az elérhető meteorológiai állomásokat.

Mozgassa az egeret a pont fölött, hogy megjelenjen az állomás neve.

Azután kattintson az időjárási megfigyelések és előrejelzések megtekintéséhez.

A térkép megváltoztatása: kattintson a fekete keresztel jelölt zöld gombra ráközelítéshez, a vonallal jelölt zöld gombra távolításhoz, vagy a zöld nyilakra a szomszédos térképek eléréséhez.


METAR-TAF: